Fresno, CA

12:33 AM PST on February 06, 2016 (GMT -0800)
Fresno Yosemite International

Weather History for KFAT - December, 2013

Change the Weather History Date:

Thursday, December 26, 2013

  Actual Average Record
Temperature  
Mean Temperature 51 °F 45 °F  
Max Temperature 66 °F 53 °F 70 °F (1892)
Min Temperature 36 °F 38 °F 21 °F (1987)
Degree Days  
Heating Degree Days 14    
Month to date heating degree days 466  
Since 1 July heating degree days 687  
Cooling Degree Days 0    
Month to date cooling degree days 0  
Year to date cooling degree days 2625  
Growing Degree Days 1 (Base 50)    
Moisture  
Dew Point 35 °F    
Average Humidity 57    
Maximum Humidity 82    
Minimum Humidity 32    
Precipitation  
Precipitation 0.00 in 0.07 in 0.59 in (1940)
Month to date precipitation 0.15 1.43  
Year to date precipitation 3.01 11.16  
Since 1 July precipitation 0.73  
Snow  
Snow 0.00 in - - ()
Month to date snowfall 0.0  
Since 1 July snowfall 0.0  
Snow Depth 0.00 in    
Sea Level Pressure  
Sea Level Pressure 30.25 in    
Wind  
Wind Speed 2 mph (East)    
Max Wind Speed 7 mph    
Max Gust Speed 8 mph    
Visibility 4 miles    
Events      
T = Trace of Precipitation, MM = Missing Value Source: NWS Daily Summary

Daily Weather History Graph

Daily Weather History Graph

Search for Another Location

Airport or City:

Trip Planner

Search our weather history database for the weather conditions in past years. The results will help you decide how hot, cold, wet, or windy it might be!

Date:

Astronomy

Dec. 26, 2013 Rise Set
Actual Time 7:10 AM PST 4:49 PM PST
Civil Twilight 6:41 AM PST 5:18 PM PST
Nautical Twilight 6:08 AM PST 5:50 PM PST
Astronomical Twilight 5:37 AM PST 6:22 PM PST
Moon 12:50 AM PST (12/26) 12:21 PM PST (12/26)
Length of Visible Light 10h 37m
Length of Day
9h 39m
Last Quarter, 37% of the Moon is Illuminated
Dec 26
Last Quarter
Jan 1
New
Jan 7
First Quarter
Jan 15
Full
Jan 23
Last Quarter

Hourly Weather History & Observations

Time (PST) Temp. Windchill Dew Point Humidity Pressure Visibility Wind Dir Wind Speed Gust Speed Precip Events Conditions
12:53 AM 42.1 °F - 35.1 °F 76% 30.26 in 3.0 mi Calm Calm - N/A   Haze
1:53 AM 41.0 °F - 35.1 °F 79% 30.26 in 4.0 mi Calm Calm - N/A   Haze
2:53 AM 39.9 °F - 33.1 °F 77% 30.26 in 5.0 mi Calm Calm - N/A   Haze
3:53 AM 39.0 °F - 32.0 °F 76% 30.27 in 5.0 mi Calm Calm - N/A   Haze
4:53 AM 37.0 °F - 32.0 °F 82% 30.26 in 5.0 mi Calm Calm - N/A   Haze
5:53 AM 37.0 °F 34.5 °F 30.9 °F 79% 30.27 in 6.0 mi NNE 3.5 mph - N/A   Haze
6:53 AM 37.0 °F - 30.9 °F 79% 30.27 in 6.0 mi Calm Calm - N/A   Haze
7:53 AM 37.9 °F - 32.0 °F 79% 30.29 in 5.0 mi Calm Calm - N/A   Haze
8:53 AM 45.0 °F 42.6 °F 33.1 °F 63% 30.30 in 9.0 mi SE 4.6 mph - N/A   Clear
9:53 AM 48.9 °F - 37.0 °F 64% 30.31 in 3.0 mi SE 4.6 mph - N/A   Haze
10:53 AM 54.0 °F - 37.0 °F 53% 30.29 in 3.0 mi SE 4.6 mph - N/A   Haze
11:53 AM 57.9 °F - 37.9 °F 47% 30.25 in 3.0 mi Calm Calm - N/A   Haze
12:53 PM 61.0 °F - 37.9 °F 42% 30.23 in 4.0 mi Calm Calm - N/A   Haze
1:53 PM 64.0 °F - 37.0 °F 37% 30.21 in 4.0 mi Calm Calm - N/A   Haze
2:53 PM 64.9 °F - 36.0 °F 34% 30.21 in 4.0 mi Calm Calm - N/A   Haze
3:53 PM 66.0 °F - 36.0 °F 33% 30.20 in 4.0 mi Calm Calm - N/A   Haze
4:53 PM 63.0 °F - 36.0 °F 37% 30.21 in 4.0 mi Calm Calm - N/A   Haze
5:53 PM 57.0 °F - 37.9 °F 49% 30.21 in 5.0 mi West 3.5 mph - N/A   Haze
6:53 PM 53.1 °F - 37.0 °F 55% 30.23 in 5.0 mi Calm Calm - N/A   Haze
7:53 PM 50.0 °F - 37.0 °F 61% 30.25 in 5.0 mi NW 3.5 mph - N/A   Haze
8:53 PM 46.9 °F - 36.0 °F 66% 30.25 in 4.0 mi SE 3.5 mph - N/A   Haze
9:53 PM 45.0 °F 42.6 °F 35.1 °F 68% 30.26 in 4.0 mi ESE 4.6 mph - N/A   Haze
10:53 PM 43.0 °F 40.3 °F 34.0 °F 71% 30.25 in 5.0 mi East 4.6 mph - N/A   Haze
11:53 PM 41.0 °F 39.0 °F 33.1 °F 73% 30.26 in 5.0 mi NE 3.5 mph - N/A   Haze